Weather in Damietta

Egypt     31°25′40″N   31°48′40″E
temp.,
°C
wind,
m/s
gust,
m/s
humid.,
%
clouds,
%
prec.,
mm/h
press.,
hPa
HPBL,
m
13 june, sun
sun1323:00+24nne56660 0.0 1013453
02:00+24n67670 0.0 1012594
05:00+24n67680 0.0 1012603
08:00+24nne55660 0.0 1013592
11:00+25n45600 0.0 1013543
14:00+25nnw66600 0.0 1012635
17:00+25nnw67620 0.0 1012667
20:00+24nnw67660 0.0 1013612
14 june, mon
mon1423:00+23nw56670 0.0 1013626
02:00+23nw56700 0.0 1012640
05:00+23nnw56690 0.0 1012735
08:00+24nnw44640 0.0 1012794
11:00+24nw55610 0.0 1013762
14:00+25nw78640 0.0 1012739
17:00+24nw78660 0.0 1012694
20:00+24nw67690 0.0 1012644
15 june, tue
tue1523:00+23nw44700 0.0 1013609
02:00+23nw22710 0.0 1012607
05:00+22wnw12710 0.0 1012512
08:00+23wnw11660 0.0 1013678
11:00+24n33620 0.0 1013635
14:00+25nnw55630 0.0 1012677
17:00+24nnw56660 0.0 1012705
20:00+24nw56730 0.0 1012767
16 june, wed
wed1623:00+23nw56730 0.0 1013771
02:00+23nw56630 0.0 1012746
05:00+23n44743 0.0 1013773
08:00+23nnw34660 0.0 1014800
11:00+24nw55640 0.0 1015882
14:00+24nnw77640 0.0 10151019
17:00+24nnw67630 0.0 1015938
20:00+23nnw67620 0.0 1016920
17 june, thu
thu1723:00+23nnw55640 0.0 1016901
02:00+22nnw44650 0.0 1016928
05:00+22n33650 0.0 1016890
08:00+23n33610 0.0 1016893
11:00+24nnw44590 0.0 1017839
14:00+24nnw55620 0.0 1016822
17:00+24nnw67670 0.0 1016803
20:00+24nnw67720 0.0 1016647